Omaha, NE

5:14 AM CDT on September 28, 2016 (GMT -0500)
Eppley Airfield

Weather History for KOMA - April, 2014

Change the Weather History Date:

Tuesday, April 29, 2014

  Actual Average Record
Temperature  
Mean Temperature 46 °F 57 °F  
Max Temperature 52 °F 68 °F 90 °F (1987)
Min Temperature 39 °F 45 °F 29 °F (1903)
Degree Days  
Heating Degree Days 19 9  
Month to date heating degree days 381 403  
Since 1 July heating degree days 6365 5992  
Cooling Degree Days 0 1  
Month to date cooling degree days 15 13  
Year to date cooling degree days 15 14  
Moisture  
Dew Point 41 °F    
Average Humidity 82    
Maximum Humidity 92    
Minimum Humidity 71    
Precipitation  
Precipitation 0.05 in 0.12 in 1.85 in (1895)
Month to date precipitation 2.57 2.84  
Year to date precipitation 3.64 6.40  
Snow  
Snow 0.00 in 0.00 in - ()
Month to date snowfall 0.6 1.0  
Since 1 July snowfall 17.8 26.4  
Snow Depth 0.00 in    
Sea Level Pressure  
Sea Level Pressure 29.60 in    
Wind  
Wind Speed 18 mph (NNW)    
Max Wind Speed 29 mph    
Max Gust Speed 38 mph    
Visibility 8 miles    
Events Rain    
T = Trace of Precipitation, MM = Missing Value Source: NWS Daily Summary

Daily Weather History Graph

Daily Weather History Graph

Search for Another Location

Airport or City:

Trip Planner

Search our weather history database for the weather conditions in past years. The results will help you decide how hot, cold, wet, or windy it might be!

Date:

Astronomy

Apr. 29, 2014 Rise Set
Actual Time 6:23 AM CDT 8:18 PM CDT
Civil Twilight 5:53 AM CDT 8:48 PM CDT
Nautical Twilight 5:17 AM CDT 9:25 PM CDT
Astronomical Twilight 4:38 AM CDT 10:04 PM CDT
Moon 6:42 AM CDT (4/29) 9:00 PM CDT (4/29)
Length of Visible Light 14h 55m
Length of Day
13h 55m
New Moon, 0% of the Moon is Illuminated
Apr 29
New Moon
May 6
First Quarter
May 14
Full
May 21
Last Quarter
May 28
New

Hourly Weather History & Observations

Time (CDT) Temp. Windchill Dew Point Humidity Pressure Visibility Wind Dir Wind Speed Gust Speed Precip Events Conditions
12:52 AM 52.0 °F - 44.1 °F 74% 29.38 in 10.0 mi North 5.8 mph - N/A   Overcast
1:52 AM 52.0 °F - 43.0 °F 71% 29.39 in 10.0 mi NNE 6.9 mph - N/A   Overcast
2:52 AM 51.1 °F - 46.0 °F 83% 29.39 in 10.0 mi North 8.1 mph - N/A   Overcast
3:10 AM 51.1 °F - 46.0 °F 83% 29.40 in 10.0 mi North 8.1 mph - N/A   Overcast
3:52 AM 51.1 °F - 46.0 °F 83% 29.40 in 10.0 mi North 10.4 mph - N/A   Overcast
4:22 AM 51.1 °F - 46.0 °F 83% 29.41 in 10.0 mi North 10.4 mph - N/A   Overcast
4:52 AM 50.0 °F - 46.0 °F 86% 29.41 in 7.0 mi North 13.8 mph - 0.00 in   Light Drizzle
5:01 AM 48.9 °F - 46.0 °F 90% 29.41 in 5.0 mi NNW 15.0 mph - 0.00 in   Light Drizzle
5:10 AM 48.9 °F - 46.0 °F 90% 29.41 in 4.0 mi NNW 16.1 mph - 0.00 in   Light Drizzle
5:52 AM 48.0 °F - 45.0 °F 89% 29.42 in 6.0 mi NNW 16.1 mph - 0.00 in   Light Drizzle
6:52 AM 46.9 °F - 44.1 °F 90% 29.45 in 4.0 mi NNW 19.6 mph 24.2 mph 0.02 in Rain Light Rain
7:52 AM 44.6 °F 36.1 °F 42.8 °F 93% 29.48 in 3.0 mi NNW 21.9 mph 27.6 mph N/A Rain Light Rain
8:50 AM 44.6 °F 36.1 °F 42.8 °F 93% 29.51 in 10.0 mi NNW 21.9 mph 27.6 mph 0.01 in   Overcast
8:52 AM 45.0 °F 36.9 °F 42.1 °F 90% 29.51 in 10.0 mi NNW 20.7 mph 27.6 mph 0.01 in   Overcast
9:52 AM 44.6 °F 36.1 °F 41.0 °F 87% 29.53 in 5.0 mi NNW 21.9 mph - N/A Rain Light Rain
10:14 AM 44.1 °F 35.0 °F 41.0 °F 89% 29.54 in 2.5 mi NNW 24.2 mph 32.2 mph 0.00 in Rain Light Rain
10:40 AM 44.1 °F 35.2 °F 41.0 °F 89% 29.55 in 3.0 mi NNW 23.0 mph - 0.00 in Rain Light Rain
10:52 AM 44.1 °F 35.0 °F 41.0 °F 89% 29.56 in 5.0 mi NNW 24.2 mph 33.4 mph 0.00 in Rain Light Rain
11:48 AM 44.6 °F 35.9 °F 41.0 °F 87% 29.58 in 7.0 mi NNW 23.0 mph 31.1 mph 0.00 in   Overcast
11:52 AM 43.0 °F 33.8 °F 39.9 °F 89% 29.59 in 7.0 mi NNW 23.0 mph 31.1 mph 0.00 in   Overcast
12:27 PM 44.1 °F 35.7 °F 39.9 °F 85% 29.60 in 10.0 mi NNW 20.7 mph - N/A   Overcast
12:52 PM 44.1 °F 35.2 °F 39.9 °F 85% 29.62 in 10.0 mi NNW 23.0 mph 29.9 mph N/A   Overcast
1:52 PM 43.0 °F 33.3 °F 39.0 °F 86% 29.65 in 5.0 mi NNW 25.3 mph 33.4 mph 0.00 in   Overcast
2:52 PM 43.0 °F 34.2 °F 37.9 °F 82% 29.68 in 7.0 mi NNW 20.7 mph 32.2 mph N/A   Overcast
3:33 PM 44.1 °F 35.2 °F 37.0 °F 76% 29.68 in 10.0 mi North 23.0 mph - N/A   Overcast
3:52 PM 44.6 °F 37.4 °F 37.4 °F 76% 29.69 in 10.0 mi North 16.1 mph 29.9 mph N/A   Overcast
4:52 PM 42.8 °F 34.3 °F 37.4 °F 81% 29.71 in 10.0 mi NNW 19.6 mph 29.9 mph N/A Rain Light Rain
5:52 PM 43.0 °F 34.5 °F 37.0 °F 80% 29.75 in 10.0 mi North 19.6 mph 33.4 mph 0.02 in Rain Light Rain
6:52 PM 43.0 °F 35.1 °F 37.9 °F 82% 29.79 in 10.0 mi NNW 17.3 mph 29.9 mph 0.00 in Rain Light Rain
7:30 PM 43.0 °F 34.2 °F 37.0 °F 80% 29.79 in 10.0 mi NNW 20.7 mph 27.6 mph 0.00 in   Overcast
7:52 PM 43.0 °F 34.5 °F 37.0 °F 80% 29.81 in 10.0 mi NNW 19.6 mph 23.0 mph 0.00 in   Overcast
8:20 PM 42.1 °F 33.9 °F 36.0 °F 79% 29.81 in 10.0 mi NNW 17.3 mph 24.2 mph 0.00 in   Overcast
8:52 PM 42.1 °F 33.1 °F 36.0 °F 79% 29.84 in 10.0 mi NNW 20.7 mph 27.6 mph 0.00 in   Overcast
9:25 PM 42.1 °F 33.1 °F 36.0 °F 79% 29.84 in 10.0 mi NNW 20.7 mph - N/A   Overcast
9:52 PM 41.0 °F 31.6 °F 35.6 °F 81% 29.85 in 10.0 mi NNW 20.7 mph - N/A   Overcast
10:08 PM 39.9 °F 31.4 °F 35.1 °F 83% 29.86 in 10.0 mi NNW 16.1 mph - N/A   Scattered Clouds
10:52 PM 39.9 °F 31.8 °F 35.1 °F 83% 29.88 in 10.0 mi NNW 15.0 mph - N/A   Scattered Clouds
11:52 PM 39.9 °F 32.5 °F 35.1 °F 83% 29.88 in 10.0 mi WNW 12.7 mph - N/A   Scattered Clouds